Weather History for Rionegro, Colombia

Change the Weather History Date:

Thursday, December 13, 2012

  Actual Average Record
Temperature  
Mean Temperature 61 °F -  
Max Temperature 69 °F 68 °F 84 °F (1998)
Min Temperature 53 °F 53 °F 51 °F (2006)
Degree Days  
Heating Degree Days 4    
Growing Degree Days 11 (Base 50)    
Moisture  
Dew Point 56 °F    
Average Humidity 85    
Maximum Humidity 100    
Minimum Humidity 58    
Precipitation  
Precipitation 0.00 in - - ()
Sea Level Pressure  
Sea Level Pressure 30.24 in    
Wind  
Wind Speed 2 mph ()    
Max Wind Speed 12 mph    
Max Gust Speed -    
Visibility 4.7 miles    
Events Fog    
Averages and records for this station are not official NWS values.
T = Trace of Precipitation, MM = Missing Value Source: Averaged Metar Reports

Daily Weather History Graph

Daily Weather History Graph

Search for Another Location

Airport:

Trip Planner

Search our weather history database for the weather conditions in past years. The results will help you decide how hot, cold, wet, or windy it might be!

Date:

Astronomy

Dec. 13, 2012 Rise Set
Actual Time 6:03 AM COT 5:49 PM COT
Civil Twilight 5:40 AM COT 6:11 PM COT
Nautical Twilight 5:14 AM COT 6:38 PM COT
Astronomical Twilight 4:48 AM COT 7:04 PM COT
Moon 6:13 AM COT (12/13) 6:23 PM COT (12/13)
Length of Visible Light 12h 31m
Length of Day
11h 46m
New Moon, 0% of the Moon is Illuminated
Dec 13
New Moon
Dec 20
First Quarter
Dec 28
Full
Jan 4
Last Quarter
Jan 11
New

Hourly Weather History & Observations

Time (COT) Temp. Dew Point Humidity Pressure Visibility Wind Dir Wind Speed Gust Speed Precip Events Conditions
12:00 AM 57.2 °F 57.2 °F 100% 30.27 in 5.0 mi Variable 2.3 mph - N/A   Scattered Clouds
1:00 AM 58 °F 56 °F 93%  in 5 mi Calm Calm - -   Haze
1:00 AM 57.2 °F 55.4 °F 94% 30.26 in 5.0 mi Calm Calm - N/A   Scattered Clouds
2:00 AM 57.2 °F 55.4 °F 94% 30.25 in 5.0 mi Calm Calm - N/A   Scattered Clouds
3:00 AM 57.2 °F 55.4 °F 94% 30.24 in 5.0 mi Calm Calm - N/A   Scattered Clouds
4:00 AM 55 °F 55 °F 100%  in 1 mi Calm Calm - - Fog Patches of Fog
4:00 AM 55.4 °F 55.4 °F 100% 30.20 in 0.6 mi Calm Calm - N/A Fog Patches of Fog
4:30 AM 55.4 °F 55.4 °F 100% 30.22 in 0.3 mi Variable 2.3 mph - N/A Fog Fog
5:00 AM 53.6 °F 53.6 °F 100% 30.22 in 0.2 mi Variable 2.3 mph - N/A Fog Fog
5:30 AM 53.6 °F 53.6 °F 100% 30.24 in 0.2 mi Variable 2.3 mph - N/A Fog Fog
6:00 AM - - N/A% - 0.2 mi Variable 2.3 mph - N/A   Unknown
6:30 AM - - N/A% 30.25 in 0.2 mi Calm Calm - N/A Fog Fog
7:00 AM 54 °F 54 °F 100%  in 0 mi Calm Calm - - Fog Heavy Fog
7:00 AM 55.4 °F 53.6 °F 94% 30.27 in 0.4 mi Calm Calm - N/A Fog Fog
8:00 AM 57.2 °F 55.4 °F 94% 30.28 in 1.9 mi Calm Calm - N/A   Scattered Clouds
9:00 AM 60.8 °F 57.2 °F 88% 30.29 in 4.3 mi Calm Calm - N/A   Scattered Clouds
10:00 AM 64 °F 60 °F 81%  in 7 mi Calm Calm - -   Clear
10:00 AM 64.4 °F 59.0 °F 83% 30.29 in 6.2 mi Calm Calm - N/A   Mostly Cloudy
11:00 AM 68.0 °F 55.4 °F 64% 30.27 in 6.2 mi Calm Calm - N/A   Scattered Clouds
12:00 PM 68.0 °F 53.6 °F 60% 30.25 in 6.2 mi East 6.9 mph - N/A   Mostly Cloudy
1:00 PM 68 °F 57 °F 58%  in 12 mi WNW 6.7 mph - -   Partly Cloudy
1:00 PM 68.0 °F 57.2 °F 68% 30.23 in 6.2 mi WNW 6.9 mph - N/A   Scattered Clouds
2:00 PM 68.0 °F 55.4 °F 64% 30.20 in 6.2 mi NE 11.5 mph - N/A   Scattered Clouds
3:00 PM 68.0 °F 55.4 °F 64% 30.18 in 6.2 mi East 9.2 mph - N/A   Scattered Clouds
4:00 PM 67 °F 56 °F 58%  in 9 mi East 8.9 mph - -   Partly Cloudy
4:00 PM 68.0 °F 55.4 °F 64% 30.18 in 6.2 mi East 9.2 mph - N/A   Scattered Clouds
5:00 PM 64.4 °F 57.2 °F 77% 30.19 in 6.2 mi NNW 4.6 mph - N/A   Scattered Clouds
6:00 PM 64.4 °F 57.2 °F 77% 30.21 in 6.2 mi NNW 4.6 mph - N/A   Mostly Cloudy
7:00 PM 62 °F 58 °F 81%  in 9 mi NE 4.5 mph - -   Haze
7:00 PM 62.6 °F 57.2 °F 82% 30.23 in 6.2 mi NE 4.6 mph - N/A   Mostly Cloudy
8:00 PM 59.0 °F 57.2 °F 94% 30.25 in 6.2 mi SE 4.6 mph - N/A   Mostly Cloudy
9:00 PM 59.0 °F 57.2 °F 94% 30.29 in 6.2 mi Calm Calm - N/A   Scattered Clouds
10:00 PM 59 °F 58 °F 93%  in 6 mi Calm Calm - -   Haze
10:00 PM 59.0 °F 57.2 °F 94% 30.29 in 6.2 mi Calm Calm - N/A   Scattered Clouds
11:00 PM 59.0 °F 57.2 °F 94% 30.29 in 6.2 mi Calm Calm - N/A   Scattered Clouds